User: anonymous   Login
Location: Moy Burn
(57.3833°N, 4.0667°W)
Time: 02:30:54
(UTC+00:00)
Language:

Cosmos 405 Rocket - Orbit

View from above orbital plane
View from above orbital plane
View from above satellite
View from above satellite

Ground track
Ground track

The orbit data is extracted from the following two-line orbital elements,

1  5118U 71028B   20302.52091786 +.00000256 +00000-0 +11949-4 0  9999
2  5118 081.2569 183.4940 0047765 116.8721 243.7402 15.14698939689967
Epoch (UTC): 28 October 2020 12:30:07
Eccentricity: 0.0047765
inclination: 81.2569°
perigee height: 489 km
apogee height: 555 km
right ascension of ascending node: 183.4940°
argument of perigee: 116.8721°
revolutions per day: 15.14698939
mean anomaly at epoch: 243.7402°
orbit number at epoch: 68996

The dashed part of the orbit path shows where the satellite is in the earth's shadow,  

DLR